#timestamp,LO_Frequency,Hit,StdDev 
1577764815.9,286047002.3,N
1577764835.7,286047002.2,N
1577764855.6,286047004.3,N
1577764875.4,286047001.6,N
1577764895.2,286047004.2,N
1577764915.1,286047002.5,N
1577764916.0,286047002.5,N
1577764935.8,286047001.9,N
1577764955.6,286047003.5,N
1577764975.5,286047004.2,N
1577764995.3,286047003.2,N
1577765015.2,286047003.3,N
1577765035.9,286047003.8,N
1577765055.7,286047003.4,N
1577765075.6,286047003.6,N
1577765095.4,286047005.4,Y
1577765115.3,286047001.8,P
1577765135.1,286047000.0,N
1577765166.0,286047000.7,E
1577765175.0,286046999.9,N
1577765176.0,286046999.9,P
1577765195.8,286047000.8,P
1577765215.6,286047000.6,N
1577765235.5,286047000.0,N
1577765255.3,286046998.2,Y
1577765275.1,286046999.9,P
1577765295.9,286047000.6,P
1577765315.7,286047000.5,N
1577765335.6,286046999.8,N
1577765355.4,286046999.7,N
1577765375.2,286047002.0,Y
1577765395.1,286046999.8,P
1577765396.0,286046999.8,N
1577765415.8,286046998.7,P
1577765435.7,286046996.5,Y
1577765455.5,286046998.2,P
1577765475.3,286047000.9,N
1577765495.2,286047000.9,N
1577765515.0,286047004.4,Y
1577765515.9,286047004.4,P
1577765535.8,286047002.2,N
1577765555.6,286047001.5,N
1577765575.4,286047001.8,N
1577765595.3,286047001.6,N
1577765615.1,286047002.4,N
1577765635.9,286047001.3,N
1577765655.7,286047002.5,N
1577765675.5,286047000.5,N
1577765695.4,286047000.4,N
1577765715.2,286047001.2,N
1577765735.0,286046998.6,N
1577765735.9,286046998.6,N
1577765755.8,286046996.8,N
1577765775.6,286046996.6,N
1577765795.5,286046999.1,N
1577765815.3,286046998.5,N
1577765835.1,286047000.6,N
1577765855.9,286046999.8,N
1577765875.7,286047002.4,N
1577765895.5,286047001.5,N
1577765915.4,286047001.9,N
1577765935.2,286046999.7,N
1577765955.1,286046998.1,N
1577765956.0,286046998.1,N
1577765975.8,286046998.1,N
1577765995.6,286047000.9,N
1577766015.5,286047001.0,N
1577766035.3,286046998.2,N
1577766055.1,286047000.1,N
1577766075.9,286047004.1,N
1577766095.7,286047003.0,N
1577766115.6,286047002.9,N
1577766135.4,286047003.6,N
1577766155.2,286047003.4,N
1577766175.1,286047003.9,N
1577766176.0,286047003.9,N
1577766195.8,286047004.1,N
1577766215.7,286047004.0,N
1577766235.5,286047005.3,N
1577766255.3,286047004.3,N
1577766275.2,286047001.4,N
1577766295.0,286047004.2,N
1577766295.9,286047004.2,N
1577766315.7,286047001.9,N
1577766335.6,286047002.3,N
1577766355.4,286047003.5,N
1577766375.3,286047001.4,N
1577766395.1,286047002.2,N
1577766396.0,286047002.2,N
1577766415.8,286047002.8,N
1577766435.7,286047002.6,N
1577766455.5,286046999.9,N
1577766475.3,286047002.4,N
1577766495.2,286047002.4,N
1577766515.0,286047004.4,N
1577766515.9,286047004.4,N
1577766535.8,286047004.0,N
1577766555.6,286047003.9,N
1577766575.4,286047003.4,N
1577766595.3,286047002.9,N
1577766615.1,286047007.5,Y
1577766635.9,286047004.4,P
1577766655.7,286047002.4,P
1577766675.5,286047011.9,P
1577766695.4,286047001.7,N
1577766715.2,286047001.8,N
1577766735.0,286047002.9,N
1577766735.9,286047002.9,N
1577766755.8,286047003.7,N
1577766775.6,286047002.0,N
1577766795.5,286047000.3,N
1577766815.3,286047000.5,N
1577766835.1,286046999.3,N
1577766855.9,286046999.0,N
1577766875.7,286047001.1,N
1577766895.5,286046999.2,N
1577766915.4,286046996.8,N
1577766935.2,286046997.3,N
1577766955.1,286046997.2,N
1577766956.0,286046997.2,N
1577766975.8,286047000.7,N
1577766995.6,286046998.6,N
1577767015.5,286046998.8,N
1577767035.3,286046999.1,N
1577767055.1,286046997.1,N
1577767075.9,286046996.7,N
1577767095.7,286046997.3,N
1577767115.6,286046994.9,N
1577767135.4,286046997.7,N
1577767155.2,286046997.9,N
1577767175.1,286046997.9,N
1577767176.0,286046997.9,N
1577767195.8,286046997.1,N
1577767215.7,286046999.2,N
1577767235.5,286046997.0,N
1577767255.3,286046996.6,N
1577767275.2,286046996.6,N
1577767295.9,286046998.1,N
1577767315.7,286046997.0,N
1577767335.6,286046997.2,N
1577767355.4,286046996.0,N
1577767375.3,286046995.8,Y
1577767395.1,286046998.9,P
1577767396.0,286046998.9,N
1577767415.8,286047000.8,N
1577767435.7,286046999.0,N
1577767455.5,286047001.2,N
1577767475.3,286046998.1,N
1577767495.2,286047000.3,N
1577767515.0,286047002.7,N
1577767515.9,286047002.7,N
1577767535.8,286046998.2,N
1577767555.6,286046998.4,N
1577767575.4,286046998.5,N
1577767595.3,286046998.3,N
1577767615.1,286047001.0,N
1577767635.9,286047000.5,N
1577767655.7,286047000.7,N
1577767675.5,286047001.0,N
1577767695.4,286046998.1,N
1577767715.2,286046996.6,N
1577767735.0,286046997.4,N
1577767735.9,286046997.4,N
1577767755.8,286046995.1,N
1577767775.6,286046997.7,N
1577767795.5,286046995.1,N
1577767815.3,286046993.3,Y
1577767835.1,286046995.1,P
1577767855.9,286046995.9,N
1577767875.7,286046995.0,P
1577767895.5,286046999.5,N
1577767915.4,286047000.7,N
1577767935.2,286046998.5,N
1577767955.1,286047000.7,N
1577767956.0,286047000.7,N
1577767975.8,286046999.3,N
1577767995.6,286046996.6,N
1577768015.5,286047000.6,N
1577768035.3,286047001.2,N
1577768055.2,286046999.3,N
1577768075.9,286046999.2,N
1577768095.7,286046999.2,N
1577768115.6,286046998.1,N
1577768135.4,286047000.9,N
1577768155.2,286047000.3,N
1577768175.1,286046999.7,N
1577768176.0,286046999.7,N
1577768195.8,286047000.1,N
1577768215.7,286047002.4,N
1577768235.5,286046999.8,N
1577768255.3,286047000.2,N
1577768275.2,286046999.9,N
1577768295.0,286047000.3,N
1577768295.9,286047000.3,N
1577768315.7,286046998.2,N
1577768335.6,286046998.9,N
1577768355.4,286047000.8,N
1577768375.3,286047000.7,N
1577768395.1,286046998.3,N
1577768396.0,286046998.3,N
